Theta_e
316 316 316 317 318 318 318 318 318 319 319 320 321 320 320 321 322 322 323 323 323 323 324 324 324 324 324 325 325 324 321 306 306 305 302 304 322 336 338 333 337 333 324 302 304 303 300 297 300 298 299 298 299 299 300 300 295 289 284 282 284 283 285 287 289 288 292 292 292 292 290 293 292 292 296 295 294 288 291 293 293 294 293 295 295 293 295 298
316 316 316 316 317 318 318 317 318 319 319 320 321 320 320 322 322 322 323 323 323 323 324 324 324 324 324 324 325 324 315 307 306 303 304 317 339 338 336 338 336 331 317 302 298 297 300 299 298 296 297 298 299 300 299 300 295 287 285 284 286 282 289 292 290 290 292 292 291 291 289 292 293 294 294 295 291 289 293 295 292 293 294 293 295 294 294 295
316 316 316 316 317 318 318 317 318 318 319 320 320 320 320 321 322 322 322 323 323 323 324 324 324 324 324 325 324 322 311 301 302 300 306 328 338 338 336 336 334 328 305 302 298 299 300 300 299 298 294 297 295 298 297 298 298 292 289 287 283 286 288 290 290 292 291 294 292 293 292 291 294 294 294 295 291 290 292 293 291 291 295 293 292 294 293 294
316 316 316 316 317 318 318 317 318 318 319 320 320 321 321 321 322 322 322 323 323 323 323 324 324 324 323 324 325 316 304 300 298 300 307 331 338 339 338 333 326 312 302 300 298 298 297 297 295 298 296 291 292 294 296 297 295 294 289 286 289 288 292 294 291 292 291 292 293 292 290 291 291 290 294 291 293 294 292 292 293 294 294 292 291 293 293 293
317 316 316 316 317 317 318 317 317 318 319 320 321 321 321 321 321 321 322 323 323 323 324 323 323 324 323 324 323 308 302 292 297 302 308 334 338 336 335 328 319 303 303 300 301 297 297 298 296 293 294 294 291 293 294 296 295 293 294 290 291 289 292 292 291 291 292 290 292 289 290 294 294 293 292 292 291 293 293 295 293 292 291 290 292 292 292 292
316 317 317 316 316 317 317 317 318 319 320 320 320 321 321 321 321 321 322 322 323 323 323 323 323 323 324 324 308 303 302 291 300 304 331 336 337 337 335 330 324 302 300 299 299 298 300 297 297 296 290 291 291 291 291 295 297 294 289 291 290 289 293 294 290 291 291 292 292 291 292 292 292 292 290 292 293 292 293 291 291 292 292 292 292 291 291 291
316 316 317 316 315 316 317 317 318 319 320 320 321 321 321 321 321 322 322 322 323 323 322 323 322 323 323 320 303 301 300 301 299 305 328 335 336 333 330 324 318 304 301 302 299 299 295 295 295 291 290 289 290 290 293 291 294 293 293 290 293 290 293 292 296 290 290 291 291 291 290 292 291 291 290 291 292 292 291 292 292 291 292 292 290 290 290 290
316 317 316 315 315 316 316 317 318 318 320 321 321 321 322 322 322 322 322 322 322 322 322 322 322 323 321 303 307 298 299 301 306 308 324 325 316 319 315 305 303 304 304 302 298 296 295 295 295 292 291 291 291 292 292 293 292 293 292 291 292 290 291 290 288 288 288 289 291 289 290 292 291 290 291 292 292 291 292 291 291 291 291 290 290 290 290 290
318 316 316 315 314 315 316 316 317 318 320 321 322 322 322 322 322 322 321 321 321 321 321 322 322 322 320 302 300 299 297 304 306 312 316 310 307 305 305 308 302 302 299 297 300 298 299 295 294 293 293 290 292 293 291 292 289 292 292 290 289 290 289 290 290 290 290 291 289 292 292 290 289 290 291 291 290 291 291 291 290 290 290 289 289 289 289 289
317 317 316 316 315 316 316 316 316 319 321 322 322 322 322 322 322 321 321 321 320 321 321 322 322 321 307 302 296 294 301 308 317 319 313 307 305 306 305 303 301 301 302 299 297 297 299 294 297 296 293 293 291 293 291 292 291 291 290 290 291 292 289 290 292 289 289 291 289 292 291 290 290 291 290 290 290 290 291 289 289 289 288 289 289 289 289 289
317 316 315 316 316 316 316 316 318 320 321 322 322 322 323 322 322 321 321 321 320 320 321 321 322 315 304 302 296 294 305 312 311 315 310 306 306 306 307 304 301 301 300 300 300 296 299 296 296 297 298 294 293 291 291 293 290 290 291 290 289 288 289 290 288 289 289 292 288 291 289 288 288 291 288 291 289 290 289 288 288 288 288 288 288 288 289 289
318 317 316 316 316 317 318 319 319 321 321 322 322 322 322 322 321 321 320 320 320 321 321 321 318 305 298 298 295 298 307 309 312 308 309 308 307 307 306 304 303 301 302 300 301 302 300 297 298 298 293 296 292 292 291 290 293 290 290 291 287 288 292 290 291 290 290 292 288 289 290 289 289 288 291 290 289 290 289 287 287 287 287 287 287 288 288 288
319 317 317 317 316 317 318 319 320 321 322 322 322 322 322 321 321 320 320 320 320 321 321 320 313 303 302 298 298 303 303 305 310 307 308 307 306 304 303 302 302 302 303 302 302 303 300 299 299 297 297 292 290 292 292 291 289 291 288 287 289 287 289 290 290 289 291 292 286 290 286 286 286 288 289 289 289 289 289 287 287 287 286 287 286 287 288 288
319 318 317 318 318 317 318 320 321 322 322 322 322 322 321 321 320 320 320 319 321 321 321 319 304 298 298 295 299 303 306 308 310 310 307 308 306 307 305 303 300 298 303 302 299 299 300 298 299 297 295 296 294 297 291 287 288 290 288 285 285 285 284 290 289 290 292 290 288 292 287 287 287 290 290 289 288 288 287 287 287 286 286 286 286 286 287 287
319 319 318 317 317 318 319 320 322 322 322 322 322 321 321 320 320 321 320 320 319 321 321 316 301 301 296 299 301 303 317 311 312 310 307 307 304 306 306 302 302 298 298 299 300 298 299 300 300 298 296 292 295 294 288 282 283 284 287 283 279 284 284 286 290 289 291 291 288 291 285 289 292 289 289 287 288 288 286 286 286 285 285 285 285 286 286 286
319 318 317 316 318 320 320 321 321 322 322 322 321 320 320 320 320 320 320 320 321 319 306 307 304 296 294 295 302 314 305 304 307 306 303 306 303 305 303 300 302 299 299 299 298 296 296 296 294 293 293 292 288 283 280 285 284 280 285 282 282 282 283 287 291 286 288 289 289 290 287 284 289 287 288 286 287 287 286 284 284 285 284 285 285 286 285 286
319 318 317 318 319 320 321 321 321 321 321 321 321 320 320 320 319 319 320 318 311 309 308 302 301 300 297 302 306 301 298 300 303 304 303 303 303 302 301 300 299 299 299 299 298 300 296 295 292 291 287 288 285 284 285 281 281 282 281 284 281 284 284 285 287 289 287 290 289 287 287 285 290 287 287 288 287 286 285 284 285 285 285 285 285 285 285 285
319 318 318 319 320 321 321 322 321 322 321 321 320 319 318 320 320 319 318 312 308 305 305 305 303 301 299 301 298 299 300 302 304 302 301 301 300 298 296 296 293 293 294 298 296 298 296 295 289 289 287 286 287 285 282 282 284 279 284 283 285 283 282 286 285 290 289 288 290 286 286 288 290 289 287 287 287 286 285 285 284 284 284 285 284 284 284 284
319 318 318 319 320 321 321 321 321 321 321 320 320 320 320 319 306 306 306 305 301 300 297 296 298 294 292 298 298 301 303 304 303 303 303 302 300 297 297 295 295 297 293 292 293 294 290 290 290 288 285 284 286 288 288 289 286 285 284 284 282 284 286 284 287 287 289 289 287 286 288 289 291 290 287 287 286 285 285 285 284 284 284 284 284 284 284 284
319 319 319 320 320 321 321 322 322 321 320 318 314 311 305 303 299 301 301 303 298 300 300 298 302 297 299 297 299 302 303 302 302 300 302 302 300 298 296 294 294 291 290 291 291 292 289 287 285 287 289 288 288 289 291 289 287 285 284 283 284 285 286 286 286 288 288 288 287 289 287 287 289 288 285 287 286 285 285 284 284 284 284 284 283 283 283 284
320 320 320 321 321 321 322 322 322 321 319 317 313 305 300 298 296 295 295 299 302 301 301 300 301 300 302 299 299 300 299 300 299 300 302 304 299 298 295 293 289 290 289 287 290 291 290 286 287 290 289 289 290 289 288 286 286 288 285 284 285 283 285 287 288 288 287 288 284 283 284 286 287 285 285 286 285 284 283 284 283 283 283 284 283 283 283 284
320 320 320 321 322 322 323 323 321 320 319 316 311 302 300 298 303 303 301 298 300 302 301 301 300 301 303 299 300 300 301 299 299 300 303 303 299 296 293 291 287 290 287 288 288 288 286 286 290 291 288 287 287 287 286 286 286 284 285 283 283 285 283 287 287 286 285 287 286 283 285 287 289 283 285 284 284 284 285 284 284 283 283 283 283 283 283 283
319 320 321 322 322 322 322 322 321 319 316 313 307 301 298 303 302 300 302 294 297 299 300 299 300 301 301 303 302 301 299 298 298 298 300 301 295 294 291 290 288 286 287 288 289 284 284 286 290 288 287 288 287 284 285 285 284 284 284 283 284 284 286 284 285 285 288 286 284 281 283 286 286 283 283 284 284 284 284 284 283 284 283 283 283 283 282 282
319 320 321 322 322 322 323 322 322 318 314 312 305 301 304 300 299 301 303 297 296 298 301 301 302 300 300 302 304 302 299 298 299 298 302 299 296 293 292 290 287 287 289 288 289 288 290 288 289 289 287 288 287 285 285 285 284 283 285 284 284 284 284 287 286 285 284 285 283 283 284 283 287 286 282 283 284 283 283 283 282 283 283 284 283 283 283 282
319 319 320 321 321 322 321 321 316 314 311 310 307 304 300 299 300 302 301 295 291 293 300 300 300 300 303 302 301 302 298 297 297 299 301 300 293 293 291 291 289 288 288 287 287 287 287 290 287 287 286 287 287 285 285 286 283 282 283 287 288 287 287 284 284 285 282 282 282 285 279 276 278 280 284 282 282 282 283 281 281 282 283 282 282 282 282 282
320 319 320 320 321 321 321 315 313 311 310 307 307 304 300 299 298 299 295 286 287 290 297 296 304 301 304 298 300 298 301 297 296 297 301 299 300 296 293 291 291 290 287 286 287 285 289 289 291 290 287 285 286 286 284 288 284 284 286 286 289 287 285 285 283 284 279 279 284 281 280 275 279 281 282 281 281 281 281 281 282 282 282 282 282 282 282 282
320 319 320 320 320 321 315 309 309 310 304 306 305 302 299 302 302 304 297 286 284 293 294 298 300 298 301 296 298 299 292 291 297 297 298 300 298 298 293 289 290 290 288 288 287 288 288 288 288 287 287 286 285 285 285 288 286 283 284 283 285 285 285 283 283 284 281 280 282 282 281 278 278 282 281 281 281 280 281 281 281 282 281 282 282 282 282 282
319 320 319 320 321 319 316 312 308 307 305 307 302 301 301 302 302 300 295 283 285 297 292 293 298 301 299 294 295 296 293 295 293 296 295 297 297 295 294 288 292 290 288 289 286 288 288 286 286 286 286 284 286 286 286 288 287 284 285 283 283 285 283 281 284 281 280 281 279 279 281 280 277 279 281 282 281 280 280 280 281 281 281 281 282 282 282 282
319 319 319 319 320 321 318 313 310 307 308 304 303 303 304 301 299 295 289 283 294 289 302 295 304 297 293 297 294 290 292 290 291 293 294 296 296 295 292 288 289 287 287 290 290 286 287 289 287 289 287 286 285 284 286 289 287 285 283 283 282 281 281 280 278 282 278 278 274 278 281 277 279 279 280 280 281 282 281 281 281 281 281 281 281 282 282 281
318 318 319 319 320 318 318 315 312 310 306 305 305 304 305 302 301 292 286 281 298 290 294 295 293 290 293 293 292 290 291 289 290 292 292 293 294 293 291 291 288 288 289 284 287 287 288 288 289 287 287 287 284 283 284 286 286 284 283 284 283 280 279 278 278 276 277 273 275 280 282 282 278 280 281 282 282 281 280 280 280 280 281 281 281 282 282 281
318 318 318 319 315 317 318 313 317 306 306 306 307 307 306 300 292 286 283 291 295 291 291 292 289 292 292 292 290 290 287 286 291 291 290 292 291 289 289 291 289 283 281 283 284 284 286 287 287 287 287 285 285 285 283 283 282 285 285 281 283 283 278 276 269 274 272 269 271 277 279 281 276 277 280 281 280 280 282 281 281 281 281 282 282 282 282 281
318 318 319 318 319 321 315 313 315 307 307 308 309 304 302 290 294 286 287 298 292 290 289 288 288 288 290 287 286 287 288 288 288 290 288 286 286 288 287 287 287 281 279 281 283 281 285 287 285 287 288 288 284 284 284 283 285 284 283 284 278 272 271 272 269 274 271 273 277 278 279 280 280 282 282 281 281 280 280 282 283 282 282 282 282 282 282 281
317 317 318 318 318 318 319 315 310 309 308 309 307 304 295 289 283 291 290 293 289 291 289 288 287 287 288 289 287 286 286 287 287 288 285 285 286 287 286 286 284 284 282 280 285 280 283 282 285 287 288 287 289 287 283 281 283 283 284 280 275 271 271 268 266 264 269 274 276 278 279 278 279 281 280 282 280 280 280 280 282 283 283 283 283 282 281 281
317 317 316 317 319 320 319 313 311 310 309 309 305 299 292 286 287 298 294 293 293 289 288 286 286 285 289 289 286 287 286 285 288 288 287 285 285 285 287 286 284 286 280 280 282 282 277 280 284 287 286 287 290 291 288 284 283 284 282 285 281 275 269 269 267 273 274 276 276 276 275 272 275 281 278 278 279 279 279 280 280 282 283 282 281 281 280 280
317 316 317 318 317 320 314 313 311 313 311 308 301 294 286 287 291 289 290 294 289 290 288 289 288 285 285 285 284 286 288 286 286 285 284 285 283 282 284 288 286 284 283 284 282 278 281 281 284 286 284 287 288 286 285 284 285 281 281 282 279 280 279 277 272 269 269 270 271 273 276 276 280 278 279 278 278 278 279 280 281 282 281 281 281 281 281 281
316 315 317 314 315 318 314 313 313 315 311 305 296 289 288 292 288 291 291 297 292 290 287 288 285 285 282 283 284 286 289 287 285 285 284 283 282 284 283 285 288 289 287 285 282 280 281 279 283 286 285 285 287 285 287 287 283 283 283 279 282 283 284 274 273 275 272 269 275 269 277 280 279 279 276 277 278 278 278 279 280 280 281 280 281 281 281 281
312 315 310 313 315 318 315 313 314 314 310 303 296 289 294 293 294 292 297 297 293 292 289 288 286 286 283 283 284 284 287 286 284 284 282 284 285 285 284 284 287 290 291 289 284 282 280 279 283 284 286 287 284 285 284 284 286 284 278 282 283 284 282 280 275 271 267 271 274 272 277 279 279 280 278 278 277 278 278 278 279 279 279 280 281 281 281 281
312 311 312 312 315 318 316 314 314 312 307 300 293 295 296 295 296 295 293 292 292 291 290 292 288 290 284 285 283 284 286 287 284 284 282 285 283 288 286 287 289 291 292 288 288 286 287 282 283 284 285 286 285 287 286 286 286 283 281 284 285 279 279 280 274 274 272 270 272 275 277 279 280 282 278 280 279 281 279 278 278 279 279 280 281 281 281 281
312 310 304 311 318 318 316 315 313 307 302 295 294 294 298 296 295 294 295 295 295 293 292 291 291 288 286 284 284 286 288 285 284 284 282 284 284 288 289 290 288 289 291 291 287 285 285 281 281 285 284 286 285 285 281 283 287 286 287 285 285 283 278 276 279 274 276 277 278 277 279 280 281 280 280 283 283 282 279 278 278 280 280 281 281 281 281 281
308 303 302 314 318 318 316 314 307 303 298 292 295 296 297 296 297 296 294 297 296 294 293 292 290 288 286 287 287 286 287 287 284 284 285 286 287 290 288 292 289 286 288 290 289 287 285 285 277 282 285 284 282 283 283 284 282 282 283 281 283 280 282 280 280 277 277 273 276 277 277 282 281 281 282 283 282 282 281 280 280 280 281 281 282 282 282 282
310 303 302 313 316 316 314 308 300 296 295 298 299 298 296 295 297 298 297 299 298 299 295 293 292 291 287 287 287 287 287 285 285 285 284 285 286 283 289 291 289 288 288 289 288 287 284 283 281 282 282 281 281 282 284 284 286 285 286 283 285 281 279 278 278 280 277 278 277 277 278 284 284 280 279 280 280 281 282 281 281 281 281 281 282 282 282 281
304 295 300 311 315 315 308 297 298 301 297 295 295 298 296 301 297 299 297 297 298 296 298 294 293 291 288 291 290 289 289 286 286 286 286 286 288 287 291 290 290 292 291 286 287 288 288 285 281 277 280 284 284 286 284 285 286 285 286 285 286 284 283 280 278 279 275 279 278 278 275 282 282 279 280 279 280 280 281 281 281 281 281 281 281 280 280 280
302 300 304 309 314 312 305 297 299 297 296 299 301 300 300 297 297 298 298 297 295 297 296 295 295 293 292 293 291 290 291 288 287 287 287 287 286 289 289 289 290 291 293 288 290 289 292 285 281 280 281 280 283 284 284 283 287 287 285 281 283 283 284 284 284 281 279 277 276 273 276 281 281 281 280 279 278 278 279 281 281 280 280 281 281 280 280 280
302 299 300 308 313 312 301 291 291 294 297 297 299 299 299 298 297 294 297 298 296 295 295 293 294 297 294 293 291 290 293 288 290 289 288 288 289 289 289 290 293 292 293 291 289 293 287 285 284 277 277 278 280 284 286 286 285 282 280 280 281 281 279 278 277 275 277 278 279 276 276 282 283 280 277 276 278 279 278 279 280 279 280 281 282 281 281 280
298 299 299 303 307 306 298 300 296 295 295 295 296 295 295 295 297 299 298 297 297 296 295 293 297 295 293 294 293 292 293 293 287 290 289 287 289 288 289 291 294 292 291 292 295 295 289 286 284 279 278 276 276 276 279 281 283 282 281 280 281 284 281 280 279 275 277 279 280 277 279 284 281 279 281 279 279 279 278 280 280 280 281 282 282 281 281 281
296 290 295 297 302 300 299 298 298 298 295 295 294 295 297 294 295 296 299 297 299 297 297 294 294 297 292 293 290 291 291 292 291 288 288 288 288 288 288 287 291 292 291 294 293 293 287 285 286 286 284 283 284 281 282 283 281 281 280 280 281 279 280 281 275 275 278 278 280 283 284 280 281 282 281 281 279 280 280 280 281 281 281 280 280 281 282 282
296 291 291 288 297 297 295 298 295 297 295 298 291 295 293 295 295 294 299 294 298 297 294 295 294 293 291 293 291 291 292 291 289 287 288 287 286 287 288 287 287 289 293 291 290 289 285 286 287 287 287 288 283 282 283 286 285 284 282 281 281 280 279 281 280 278 281 278 277 285 283 280 283 281 279 280 283 281 280 280 280 282 281 280 281 281 284 281
291 292 295 297 292 288 291 292 296 295 296 298 292 295 294 293 294 291 295 297 296 298 294 292 294 296 294 293 293 288 290 290 289 289 287 286 287 289 288 288 288 289 291 289 288 289 286 286 287 284 284 285 282 283 282 283 284 283 283 283 282 281 278 279 280 283 282 281 280 284 282 280 283 284 284 285 285 283 282 282 282 282 282 281 281 281 281 282
294 291 292 296 291 291 293 294 296 295 294 295 291 293 291 293 292 295 293 291 294 293 297 289 292 295 295 295 293 289 290 286 286 289 287 288 287 286 286 288 288 285 287 287 288 285 288 286 286 285 285 285 284 283 283 284 282 282 282 283 284 282 280 281 282 283 282 282 284 284 281 281 284 281 282 285 284 283 282 282 282 281 280 281 281 280 281 281
289 291 288 292 291 288 290 293 294 294 292 294 288 290 292 292 293 294 292 293 288 292 296 293 294 295 295 293 294 290 291 292 291 287 290 289 286 286 286 286 286 286 286 287 288 288 289 284 288 284 284 284 285 282 282 283 282 282 283 283 281 280 280 280 280 279 280 279 281 280 281 281 285 283 281 280 279 280 281 280 280 279 279 280 280 281 281 281
292 290 294 291 288 288 289 290 292 292 291 292 289 290 291 292 291 295 293 296 294 291 293 293 295 293 292 293 293 293 296 294 292 290 291 291 289 290 289 287 289 286 286 285 286 286 287 283 282 283 282 283 280 279 278 278 277 278 279 281 278 279 277 278 277 279 279 279 280 278 277 279 284 280 279 281 280 280 280 280 280 280 280 279 280 281 281 281
292 293 293 293 286 290 286 287 290 290 286 290 291 291 290 289 293 294 289 294 294 295 295 296 295 292 288 291 291 294 294 291 291 291 292 291 291 289 292 289 292 289 285 287 286 285 286 281 279 278 280 281 278 277 276 276 277 278 279 280 280 281 282 278 279 280 282 283 279 278 279 283 281 279 279 279 279 278 278 278 280 280 279 280 280 281 281 280
Wind_Speed
1 1 1 1 2 3 3 4 4 4 5 5 6 6 6 7 8 8 9 10 10 10 11 12 11 12 12 12 12 12 11 1 1 0 2 3 2 4 4 1 6 5 3 3 3 2 2 4 2 9 3 3 3 1 1 2 1 2 2 4 1 1 2 4 4 7 1 0 3 5 2 2 3 4 2 2 1 3 2 2 6 2 3 3 1 4 4 4
1 1 2 2 2 2 3 3 4 4 4 5 6 6 7 8 9 10 11 11 11 12 12 12 13 12 12 12 12 12 6 2 1 2 4 3 5 2 3 5 6 4 4 3 4 2 3 0 2 5 3 2 2 0 1 0 2 4 2 2 1 5 1 5 3 5 1 3 2 2 3 0 3 0 2 1 4 5 7 1 2 3 4 6 9 12 12 10
2 2 2 2 3 3 3 3 3 3 4 5 5 6 7 8 9 10 11 11 12 12 13 13 13 13 13 12 12 9 5 3 1 2 1 6 6 2 4 7 5 3 1 2 1 4 2 2 1 1 4 1 7 1 4 2 1 0 2 0 2 7 2 5 3 2 5 0 2 2 2 0 2 1 1 0 4 6 6 5 2 1 7 6 7 10 9 11
3 3 3 4 4 4 4 3 4 4 4 5 6 7 8 10 10 11 12 12 12 13 13 14 14 13 13 12 11 5 1 2 1 1 1 7 4 4 7 8 6 5 6 8 5 4 4 7 6 4 1 5 3 1 2 2 2 0 2 2 1 2 0 1 5 6 4 1 1 0 1 3 4 3 0 2 4 7 3 3 2 3 6 5 5 8 9 12
4 4 3 4 4 5 4 4 4 4 5 7 8 9 9 10 10 11 12 12 13 13 13 14 13 13 13 12 10 1 4 4 1 1 2 7 4 6 8 8 8 6 5 7 6 5 8 4 2 4 3 0 2 1 1 2 1 3 2 1 3 1 1 4 4 3 1 2 0 0 4 4 0 0 2 2 3 7 3 1 0 1 2 3 6 5 8 11
5 5 5 4 5 5 5 5 5 5 6 8 8 9 9 9 10 10 11 12 12 12 13 13 13 13 13 11 2 0 2 1 1 1 8 5 3 7 7 6 6 6 5 6 3 2 3 4 4 1 2 1 1 1 1 0 1 0 2 1 3 3 1 1 1 3 1 1 1 3 3 1 0 2 2 3 6 4 3 3 6 5 3 4 6 5 8 11
4 5 5 5 5 5 5 5 5 6 7 8 8 8 9 9 10 10 11 12 12 12 12 12 11 12 13 5 0 3 1 4 2 3 7 4 4 7 7 5 6 4 5 3 2 1 2 3 3 1 2 1 0 1 0 1 2 3 2 1 3 4 5 4 1 4 1 3 5 2 2 2 1 5 0 1 3 3 6 6 7 5 7 7 9 9 8 7
5 4 4 5 5 5 5 5 5 6 7 7 7 8 8 9 10 10 11 12 12 12 11 11 10 10 10 1 0 2 2 4 1 2 5 5 6 6 7 5 3 3 2 1 4 3 3 3 3 2 1 2 1 3 1 1 2 2 2 0 2 1 5 4 3 3 3 7 6 3 5 5 3 2 0 1 1 4 6 5 5 6 10 11 11 10 8 9
3 4 4 5 5 5 5 5 5 5 5 5 7 8 9 10 10 11 11 12 12 11 10 9 10 9 3 1 2 2 4 2 2 3 3 4 3 6 5 0 2 4 3 2 1 4 3 3 1 5 3 1 2 1 0 1 5 3 3 0 2 3 5 4 5 4 4 4 3 1 8 4 4 1 0 3 3 3 4 9 7 9 13 11 9 8 9 9
4 6 5 5 4 5 5 4 4 4 5 7 8 9 9 10 11 11 11 11 11 10 9 9 9 8 3 2 2 1 3 1 1 2 0 5 5 7 9 3 5 5 4 1 4 4 2 4 3 4 6 2 3 0 0 2 2 3 1 2 2 6 6 3 1 3 3 4 1 2 7 3 1 2 2 2 3 3 9 10 8 11 10 8 7 7 7 9
4 5 5 5 4 4 3 2 3 4 6 7 8 9 10 11 11 12 12 11 10 8 7 8 7 3 0 2 3 6 2 2 1 0 2 5 7 6 0 2 3 3 4 1 1 3 2 6 3 4 1 3 4 0 0 1 3 2 1 2 5 5 4 7 4 6 1 3 2 6 4 2 2 1 3 3 2 1 10 8 8 9 7 6 7 7 6 7
6 5 5 5 5 5 4 3 4 5 6 8 9 9 10 11 12 12 11 10 8 6 6 4 2 1 2 3 4 6 0 1 1 2 2 2 4 1 2 3 1 4 3 2 2 2 3 4 6 2 1 2 0 0 0 2 1 0 1 4 6 7 5 2 1 1 0 2 2 5 1 1 0 3 1 1 3 6 10 8 6 7 6 5 5 6 7 7
7 5 6 5 5 5 5 5 5 6 7 8 9 10 11 12 12 11 10 8 6 6 4 1 2 1 1 2 7 5 1 0 3 5 5 4 5 3 4 3 3 2 2 3 2 1 3 6 4 3 1 3 2 0 1 3 1 0 3 1 6 7 7 2 0 1 1 1 2 2 4 6 3 1 3 2 4 7 10 7 5 5 5 5 5 5 6 8
7 6 7 6 6 6 6 5 5 6 7 8 10 10 12 12 12 11 9 7 7 2 2 3 2 1 2 4 4 2 0 3 3 5 2 0 3 2 3 3 4 3 1 3 2 2 4 1 5 4 1 1 0 0 3 3 4 1 0 2 1 4 5 2 1 0 2 1 1 1 3 8 4 0 3 0 2 5 5 3 4 4 4 4 4 5 6 6
8 8 7 6 6 8 7 6 7 8 8 9 9 10 12 13 12 9 7 5 3 3 2 1 2 2 1 6 3 6 3 2 3 0 1 2 3 2 1 3 5 5 2 4 2 1 4 4 4 1 0 1 1 1 2 3 4 2 1 5 3 4 6 8 3 3 3 1 3 3 1 9 8 1 3 2 4 8 6 3 3 4 4 4 4 5 5 5
8 8 7 9 11 10 9 8 8 8 6 7 9 10 9 12 9 5 3 3 4 2 1 0 2 3 1 4 1 2 2 1 1 0 1 1 2 1 1 4 1 4 2 2 2 2 4 6 6 1 1 2 5 5 2 3 2 4 2 4 2 0 5 8 1 2 4 1 3 1 6 4 4 1 3 4 4 6 8 3 3 4 4 4 4 4 4 5
9 9 9 10 10 10 8 7 6 7 6 4 8 9 8 6 4 3 3 2 2 1 0 1 0 0 2 1 1 0 3 1 2 1 2 2 1 5 4 3 2 1 3 2 6 2 5 3 2 1 4 3 3 5 1 4 6 4 2 4 3 3 2 3 5 2 3 1 1 2 1 5 6 2 6 6 3 7 6 4 3 3 3 3 3 4 4 4
11 10 8 9 11 7 8 8 4 5 2 5 7 6 4 5 4 3 2 1 0 1 0 0 1 2 6 2 2 2 0 1 2 2 3 2 4 5 4 2 1 4 3 1 4 2 2 1 3 4 1 1 3 4 5 7 7 4 3 2 6 2 4 6 1 1 2 2 0 1 2 10 13 2 7 5 3 7 5 3 3 3 3 3 3 3 3 4
12 10 10 11 9 7 8 3 3 1 2 6 6 3 2 1 1 1 1 0 1 1 0 2 3 4 3 1 2 3 1 1 1 1 1 3 2 3 4 3 5 6 1 2 2 2 2 3 3 1 5 3 8 11 11 11 5 5 7 6 4 4 4 5 6 3 1 4 4 3 6 9 10 5 4 5 3 7 5 3 3 2 2 2 2 2 3 3
12 12 12 10 10 7 9 3 2 3 5 4 3 1 0 1 1 1 1 1 4 6 2 3 4 1 2 1 1 1 2 1 3 3 0 1 3 3 4 2 3 5 5 5 0 2 1 4 6 10 10 10 7 11 13 5 2 3 3 3 4 6 6 3 3 4 0 1 7 9 6 7 10 4 1 1 4 6 4 3 2 1 1 1 2 3 3 4
13 14 12 11 9 8 7 5 4 3 4 1 1 2 2 4 2 4 2 6 6 3 4 4 7 4 3 2 1 4 3 1 2 0 1 1 1 6 1 2 2 1 0 2 5 0 3 5 11 12 6 9 11 7 2 1 2 1 2 3 6 4 8 3 2 1 1 3 3 1 1 7 11 1 4 1 2 2 3 4 2 2 1 1 2 3 3 2
13 12 12 10 8 7 9 6 6 6 5 0 1 2 0 2 1 1 2 5 2 7 7 5 1 5 1 4 3 3 2 1 0 0 0 1 1 5 2 3 3 8 1 3 2 2 2 9 13 8 3 3 1 3 3 5 3 1 4 3 2 8 3 9 3 2 2 2 8 2 3 9 8 2 2 2 1 0 1 1 2 3 2 1 2 2 3 3
13 13 11 10 9 7 9 4 6 8 2 1 1 1 1 1 0 0 2 1 6 2 3 2 3 8 5 2 1 2 3 6 6 4 5 3 2 3 5 3 4 3 1 4 8 4 2 7 14 2 5 4 1 3 4 2 1 4 1 2 9 2 1 6 1 3 1 2 2 1 4 8 4 3 2 2 0 1 2 3 3 2 3 2 1 1 1 2
14 13 11 10 9 10 6 6 7 4 2 3 2 4 1 1 3 1 1 3 4 5 5 4 4 3 7 5 4 7 6 3 3 5 2 5 8 3 3 5 4 3 8 7 8 11 11 3 1 6 4 6 5 3 4 5 5 2 5 5 4 2 4 7 5 2 2 1 1 1 3 7 10 8 1 2 1 2 2 4 3 3 2 0 0 2 2 1
14 13 11 10 10 9 5 7 3 3 4 1 3 4 3 3 2 3 0 4 1 5 1 2 3 3 3 2 2 6 1 0 4 1 3 6 6 3 3 1 4 7 5 5 2 3 9 6 3 5 1 2 4 3 5 6 4 3 5 10 8 6 7 4 4 4 6 3 1 0 4 5 3 3 5 3 1 1 0 2 1 1 1 1 3 2 1 2
14 13 12 11 11 8 8 3 3 5 4 3 3 2 4 3 3 3 2 1 7 3 3 5 4 2 2 0 1 4 4 4 0 2 2 3 1 3 2 1 2 6 4 5 6 4 7 1 5 5 4 3 4 4 4 7 5 0 6 7 11 7 2 1 0 2 2 1 1 2 3 7 6 4 2 2 2 1 1 0 0 0 1 1 1 1 1 1
16 15 13 12 12 11 6 4 2 6 2 3 2 4 3 2 1 1 2 3 6 5 7 2 1 1 1 0 3 4 2 5 0 2 1 2 4 1 4 5 2 2 3 2 3 6 2 1 3 2 4 5 4 7 4 9 7 4 2 2 4 4 5 4 4 5 5 1 3 1 1 4 4 4 3 2 1 0 1 2 2 2 2 1 1 0 0 0
17 16 15 15 14 13 1 5 5 4 3 0 2 3 3 3 1 2 2 4 6 4 2 2 1 2 2 0 5 3 1 1 2 2 0 2 1 2 1 5 8 8 3 4 9 1 4 1 3 3 3 4 8 4 6 8 7 3 1 5 4 5 4 4 5 4 1 1 7 4 1 3 4 3 3 2 1 4 8 5 5 4 3 3 2 2 2 1
17 16 16 16 13 14 3 5 4 3 1 3 4 3 4 3 2 4 4 5 1 2 2 4 4 2 2 0 2 1 1 1 1 0 2 2 4 2 2 4 4 4 2 4 8 1 2 1 4 8 7 7 3 2 8 11 5 1 6 8 7 6 5 4 4 3 1 1 6 4 2 3 7 2 0 2 2 9 5 7 8 6 5 5 4 4 4 1
17 17 17 15 9 10 7 2 2 1 5 4 4 4 3 3 4 2 1 8 1 3 1 1 2 4 3 7 1 2 1 2 2 0 3 3 2 4 2 3 4 3 2 3 1 6 0 5 3 4 6 4 5 1 3 1 1 6 3 6 5 7 3 2 6 2 1 2 7 9 7 6 7 3 8 8 7 3 4 2 3 3 4 5 5 5 5 4
18 17 18 16 9 5 4 7 6 4 5 4 3 4 5 4 4 4 11 5 3 1 2 1 3 3 8 10 6 0 3 1 0 2 2 1 1 3 1 2 4 5 2 2 3 4 1 1 0 2 3 3 4 4 4 1 3 5 2 3 2 1 5 2 3 5 1 5 4 1 2 1 8 4 6 6 2 3 9 9 12 11 10 9 8 7 5 4
18 18 19 15 6 6 12 10 9 8 7 6 6 5 6 4 1 9 8 3 1 4 6 4 0 4 6 2 5 5 6 1 1 3 6 4 6 7 7 9 6 3 3 4 6 2 4 7 2 3 3 8 3 6 2 3 1 4 6 6 5 3 5 2 2 2 5 5 1 3 1 2 11 5 1 4 7 4 4 3 11 13 11 10 8 8 5 4
18 19 18 13 8 7 6 5 12 9 8 5 5 1 4 5 9 16 5 4 2 5 4 5 5 4 6 4 3 2 1 6 1 2 4 1 5 5 1 2 4 4 3 1 5 2 6 2 1 3 1 4 6 7 3 1 2 5 7 6 6 0 0 4 4 2 6 5 3 1 0 5 2 5 4 5 3 3 3 4 3 9 13 13 10 7 5 4
20 17 12 11 10 8 4 9 10 13 10 5 9 5 3 4 15 6 15 8 2 2 5 2 4 4 8 9 5 7 2 2 7 3 3 3 2 5 6 4 4 0 5 1 6 7 1 3 5 8 5 3 8 9 9 6 9 8 3 9 8 7 5 4 3 4 5 4 2 4 1 6 1 3 2 6 3 3 4 5 4 5 5 5 4 3 4 5
19 16 12 7 9 8 9 10 13 14 10 7 5 8 12 16 9 7 7 8 1 1 2 1 6 5 4 2 1 4 3 3 4 5 4 7 6 5 8 9 5 3 2 5 3 2 5 5 4 2 2 3 10 0 6 6 5 0 2 6 5 7 5 2 4 3 1 3 3 2 6 4 4 0 1 2 3 2 3 2 4 6 5 5 5 7 8 7
14 11 11 9 9 9 10 11 15 15 12 10 9 8 17 14 7 4 3 4 2 5 4 4 4 4 1 3 2 6 5 1 4 4 1 4 2 5 3 4 9 12 8 8 4 4 2 3 1 4 3 1 2 2 1 2 6 4 5 5 6 2 4 2 2 2 2 3 9 3 7 6 3 0 2 3 1 2 2 0 2 5 7 6 8 9 9 9
12 8 13 12 10 10 12 11 12 14 12 12 13 15 15 6 4 3 2 9 5 14 6 9 6 8 6 8 6 5 5 4 3 5 4 2 5 7 3 6 5 9 9 7 2 3 7 4 1 4 4 1 0 0 2 4 3 8 2 7 1 1 3 5 4 1 2 5 7 3 7 6 1 9 1 2 2 5 3 2 3 4 6 9 11 11 11 10
9 7 11 12 13 12 13 13 14 11 11 12 16 19 2 11 3 4 1 4 4 5 6 11 3 10 5 8 6 6 4 8 5 3 4 7 4 5 7 3 6 13 15 2 3 2 3 3 2 0 1 2 1 1 4 2 2 3 2 3 5 2 1 1 4 4 2 4 5 5 3 7 8 8 2 5 6 9 7 4 4 8 10 13 12 12 9 6
8 9 11 19 12 16 14 15 14 13 12 12 12 15 9 2 3 3 6 4 1 5 9 7 5 4 5 7 3 3 10 9 8 8 6 4 3 5 9 6 4 7 7 8 2 2 0 3 2 1 2 1 0 3 7 3 1 2 2 2 1 2 1 5 7 3 4 7 5 10 4 13 3 5 10 7 12 10 5 6 11 14 15 14 13 12 12 11
10 5 15 9 17 14 15 16 11 12 12 17 15 15 3 5 3 2 2 5 2 5 4 6 3 5 4 5 7 8 6 6 10 7 4 2 7 1 6 1 6 4 5 7 4 1 3 2 4 1 2 2 3 4 8 11 8 1 2 2 0 0 2 3 1 4 5 3 5 8 10 9 1 3 8 5 1 6 12 15 13 12 13 13 13 14 13 12
9 6 4 9 21 17 14 11 11 16 13 10 10 9 4 2 3 2 4 3 1 2 2 2 6 9 6 5 5 2 5 7 7 7 5 3 6 1 6 6 6 6 3 3 3 3 2 2 6 1 2 4 7 3 3 4 5 7 12 11 12 7 2 2 9 2 1 3 5 4 14 8 2 3 1 1 3 4 9 7 9 11 12 14 14 10 8 9
10 9 7 6 18 24 17 15 9 7 5 11 15 10 5 5 3 6 2 1 2 2 1 2 1 2 4 6 4 7 6 6 7 5 5 9 5 1 1 7 7 13 12 8 9 4 4 3 5 4 7 8 3 0 1 0 0 1 4 5 6 6 4 4 9 5 1 4 5 1 2 11 1 0 1 3 3 4 4 6 8 8 11 8 5 5 5 5
11 10 5 9 18 24 18 15 12 8 9 9 2 2 3 1 6 6 8 2 3 3 1 2 5 4 4 3 2 4 8 4 9 8 3 4 4 6 4 7 8 8 5 2 4 2 4 2 1 2 2 3 2 1 1 2 1 1 2 2 4 7 7 8 6 4 4 1 1 1 4 6 1 2 1 2 4 4 3 6 9 5 4 7 8 8 7 5
7 3 2 1 13 18 19 15 14 17 14 2 8 8 2 5 8 6 11 11 7 4 5 3 1 4 2 2 3 5 6 3 4 6 2 2 3 2 0 8 10 7 6 8 7 8 4 4 6 2 1 3 4 2 1 1 1 3 3 2 3 2 3 2 5 1 1 6 4 5 14 9 1 1 1 1 2 0 3 4 5 5 4 7 8 7 5 5
5 1 2 3 6 8 15 10 14 12 14 14 11 13 8 3 5 12 12 10 5 4 3 4 5 4 2 2 3 2 3 6 1 3 2 2 2 1 5 4 2 4 1 1 4 8 4 4 8 8 11 9 7 7 8 8 8 2 1 1 3 8 6 3 6 3 8 2 8 5 13 3 2 2 0 2 2 1 1 1 1 4 5 6 6 6 7 6
6 5 2 3 7 4 4 4 3 11 12 13 12 12 12 8 2 2 10 7 9 4 4 3 1 4 3 4 3 5 5 1 4 2 4 3 2 1 2 4 0 1 1 3 6 7 3 1 5 8 10 12 8 2 2 5 4 6 4 7 6 4 6 5 2 3 9 2 9 13 12 1 4 1 2 2 1 3 2 2 5 5 5 4 4 5 7 9
2 5 6 5 1 7 1 2 2 7 13 13 9 6 13 15 3 1 7 6 8 9 3 3 4 6 4 7 8 6 5 4 1 2 4 4 1 0 4 2 4 4 3 4 2 5 3 3 7 10 10 9 3 3 5 7 7 6 7 7 7 7 8 10 10 9 5 1 14 10 1 3 9 4 2 3 7 3 3 5 5 7 6 6 6 4 5 5
2 2 2 1 4 7 11 8 6 3 2 14 5 3 12 14 10 9 2 2 3 7 7 1 4 10 11 12 8 5 7 9 5 9 3 0 3 0 1 2 1 3 1 1 3 3 5 8 6 5 8 6 3 3 6 3 4 4 8 9 9 10 6 11 9 9 7 10 16 10 4 5 8 4 7 11 7 4 8 9 8 5 2 3 3 6 8 9
1 1 0 2 2 3 7 2 10 7 6 9 3 4 5 13 16 11 5 3 4 5 12 9 12 11 11 8 8 7 8 6 11 7 5 7 7 4 2 1 1 3 2 1 1 1 2 4 3 4 7 6 5 5 4 7 3 2 7 12 12 9 13 13 13 10 11 12 12 7 1 11 5 3 6 6 2 4 3 1 2 3 4 5 4 6 8 9
2 2 1 2 2 2 1 2 5 8 7 6 4 6 4 6 13 6 0 9 6 7 6 12 13 12 10 9 9 9 14 16 11 12 9 8 3 3 4 4 4 2 1 3 2 2 5 3 5 3 4 7 5 3 3 5 5 9 12 12 6 5 6 8 3 1 2 5 8 6 10 14 7 4 4 3 3 3 3 4 4 3 3 5 5 7 9 7
2 1 1 5 3 1 2 2 4 6 7 5 7 7 5 6 7 6 4 1 9 8 9 18 14 6 6 9 12 15 17 14 8 5 9 14 13 6 7 4 6 6 3 2 1 1 3 3 3 2 5 7 4 6 5 3 1 7 15 13 7 9 10 6 5 7 6 10 7 5 8 12 5 2 4 5 4 5 8 7 5 5 6 5 7 8 7 7
2 2 0 2 2 2 3 1 1 3 8 8 8 6 7 13 5 3 1 1 0 1 5 9 5 7 4 9 18 20 3 6 5 4 3 2 4 4 1 3 8 6 5 7 2 5 5 5 5 3 7 9 2 5 7 4 2 10 22 18 14 13 8 2 2 7 13 9 7 10 14 5 2 4 3 5 6 5 5 5 7 7 5 5 8 9 7 6
Wind_Direction
211 264 277 338 12 356 12 4 5 360 356 356 3 359 352 350 355 356 355 357 356 354 350 347 346 342 340 337 337 340 352 68 23 47 357 242 322 272 258 186 144 141 115 75 50 82 3 17 7 340 22 52 321 54 294 51 51 55 63 116 52 203 117 204 174 189 201 290 293 345 56 48 325 337 319 345 359 71 307 291 294 314 265 240 253 41 6 344
262 294 299 349 346 355 20 6 2 354 349 347 0 357 351 353 355 355 356 354 354 351 348 345 343 343 338 335 339 347 350 35 314 315 247 337 326 356 91 124 134 143 93 47 100 94 102 344 9 34 43 48 314 319 20 348 80 84 134 78 234 192 239 152 201 202 130 268 229 273 309 154 245 139 316 31 302 351 334 311 346 318 308 342 8 359 17 19
304 317 340 329 327 353 10 348 350 351 344 343 358 354 352 353 355 355 353 352 351 350 347 342 340 339 337 334 335 2 358 339 347 1 322 350 333 63 107 122 101 72 85 154 188 125 121 177 170 64 6 95 10 301 24 320 30 194 113 307 254 210 250 226 196 221 203 119 291 313 357 103 251 121 292 84 272 316 302 302 337 335 294 339 354 6 10 30
298 311 339 329 332 341 347 347 336 341 337 344 350 355 353 352 355 354 351 349 349 348 344 342 337 336 334 331 336 334 17 33 4 264 320 327 344 79 116 109 87 98 84 67 144 103 108 86 60 75 24 68 311 24 32 319 50 263 76 165 228 197 111 264 187 238 238 172 278 88 310 332 292 214 81 183 355 300 279 229 178 271 298 329 355 16 18 28
291 297 314 326 319 319 341 328 329 329 338 345 354 352 353 352 353 352 348 345 345 344 342 337 337 332 329 328 337 19 26 50 269 251 303 335 19 92 112 97 81 66 100 145 86 52 70 82 82 41 78 294 359 10 1 341 102 117 211 190 161 119 297 253 205 224 159 158 194 249 335 267 354 89 157 147 246 267 256 289 176 33 42 24 9 11 29 29
291 292 297 310 317 317 330 325 322 333 342 346 350 349 347 349 350 348 345 342 341 340 337 336 331 329 326 323 34 27 72 43 259 337 334 342 56 90 99 96 90 86 80 51 95 41 70 5 63 30 7 53 335 80 318 158 342 260 314 248 210 199 233 273 176 221 115 310 257 300 249 26 84 293 226 195 209 233 3 73 92 80 71 74 66 38 30 27
286 287 291 307 311 312 319 323 324 335 343 343 347 349 345 345 344 346 341 338 337 336 334 331 330 325 325 340 116 83 121 266 14 279 2 19 65 78 82 60 57 54 58 72 32 81 73 84 84 177 98 38 280 135 264 16 9 113 233 344 318 171 219 211 259 124 251 176 250 212 14 288 271 316 171 127 271 57 67 74 84 87 72 55 53 37 41 34
272 275 288 295 302 307 313 315 322 329 338 345 343 344 344 342 340 341 339 334 335 334 331 331 330 326 346 47 3 356 42 251 264 11 339 58 50 81 91 52 77 75 72 112 133 113 113 114 155 148 68 162 215 146 305 84 31 130 282 248 252 161 244 284 272 276 241 247 264 318 287 254 165 219 34 301 154 94 75 65 64 66 57 49 49 36 31 31
226 275 283 284 288 292 305 312 322 324 330 338 338 338 340 339 337 337 334 333 332 327 328 329 329 331 333 73 113 22 271 240 222 308 325 83 70 45 26 93 40 104 121 69 18 163 134 246 117 182 272 183 178 106 297 156 311 174 221 183 284 281 301 285 303 264 235 261 159 318 268 294 259 251 191 250 124 112 86 58 36 49 50 42 40 36 33 29
226 261 266 277 279 290 300 304 299 312 328 331 336 335 333 337 332 334 330 330 327 327 325 327 326 325 18 92 49 76 259 271 341 334 97 120 83 68 44 104 99 108 109 13 90 103 162 212 168 181 124 85 141 139 148 114 239 161 223 221 282 285 343 323 265 316 343 274 177 244 289 290 328 64 288 47 145 139 69 53 38 55 53 39 40 34 29 33
186 238 254 266 278 286 298 275 286 311 325 328 329 330 329 330 329 327 326 322 323 320 321 316 329 333 116 92 130 218 212 75 271 81 117 92 68 65 156 132 131 85 100 92 198 175 169 145 153 112 64 228 136 318 148 216 132 77 174 332 293 324 272 260 302 285 296 305 165 189 254 301 293 98 216 160 91 78 85 53 48 53 50 40 34 38 28 36
179 243 253 267 264 262 265 260 279 308 320 323 323 326 326 325 323 322 319 313 311 308 310 317 360 101 67 75 160 218 304 196 89 92 56 79 63 95 206 166 126 144 127 159 250 236 177 164 134 119 201 125 46 116 271 241 44 140 54 320 301 348 343 324 289 345 71 270 137 159 310 289 24 212 246 61 90 93 79 67 49 51 48 39 31 36 34 26
176 242 245 251 242 246 258 264 286 304 316 320 322 324 323 319 317 313 309 307 305 296 298 49 25 89 98 328 233 231 293 207 132 105 64 69 112 80 84 84 102 122 148 138 205 226 157 139 129 103 140 107 160 161 180 69 340 103 35 110 329 352 324 301 64 357 19 251 116 186 298 280 271 234 255 186 128 84 60 45 41 45 39 34 34 35 34 25
196 210 243 240 235 243 243 258 282 305 319 325 323 319 316 315 310 304 298 294 310 305 44 63 77 59 93 237 268 241 224 125 118 76 48 310 73 351 30 30 71 65 37 97 83 106 113 83 97 101 133 82 152 124 48 341 19 215 234 66 258 2 275 268 131 304 349 88 52 105 229 286 259 170 304 6 162 90 93 56 52 41 37 34 33 38 38 30
204 203 204 239 228 225 233 264 287 305 315 323 320 317 317 311 308 296 283 294 304 24 36 17 37 69 59 266 246 301 148 120 96 160 300 121 115 52 20 27 38 29 79 88 129 60 119 107 99 83 186 273 55 112 350 20 357 10 21 294 328 168 280 299 279 184 181 356 21 100 307 250 285 303 8 35 85 103 96 84 60 48 45 34 30 40 35 31
199 194 192 216 227 235 245 262 278 293 302 311 316 318 316 309 313 289 290 301 345 326 13 38 357 104 106 289 228 99 63 122 221 275 303 121 111 148 171 116 42 26 42 17 60 91 49 87 73 176 127 18 63 87 48 11 337 351 168 273 270 284 261 334 1 308 300 98 11 158 231 327 338 244 23 7 90 93 111 86 59 54 44 38 37 33 33 25
199 193 199 221 245 246 256 262 266 286 289 301 313 313 314 304 327 310 298 25 356 28 55 229 129 120 240 245 91 323 234 247 313 34 10 19 107 148 102 54 32 30 27 50 26 58 353 65 279 28 30 123 139 99 37 337 298 277 33 224 206 196 256 271 303 8 4 95 218 13 210 240 247 140 2 21 70 105 99 94 69 53 44 36 32 39 34 35
201 196 204 225 238 247 257 262 283 286 302 326 311 310 298 302 338 327 292 23 304 96 173 161 134 2 282 37 220 228 53 293 47 173 57 317 111 85 97 108 37 79 56 47 355 122 320 150 38 190 23 35 133 101 141 230 207 207 178 257 278 263 222 249 316 258 33 24 51 299 221 268 272 275 23 19 23 96 96 98 85 55 43 27 36 38 35 41
198 193 200 221 241 255 262 267 243 145 20 335 321 310 297 311 42 114 83 342 112 352 2 219 138 157 211 224 328 16 203 221 127 69 167 107 28 97 72 80 91 115 112 91 241 118 349 76 26 51 222 148 199 181 189 219 171 203 172 184 175 183 241 218 237 273 139 285 286 216 233 251 265 273 17 18 23 98 110 95 75 63 44 39 40 38 42 38
197 199 207 219 231 233 262 198 175 106 45 325 19 23 39 9 7 308 338 43 226 190 167 211 201 325 327 186 177 253 295 52 126 329 275 297 118 79 38 83 40 62 110 179 182 162 107 150 189 213 216 197 203 197 206 219 134 116 111 115 205 220 271 287 253 251 177 332 251 247 240 243 263 274 322 21 74 81 97 101 105 88 65 32 25 33 32 40
203 209 210 217 214 216 242 235 178 137 88 52 329 79 191 191 118 281 287 244 233 258 239 231 205 196 254 123 147 150 132 309 68 32 203 129 118 115 216 69 45 133 290 179 139 234 69 173 234 228 212 186 208 213 207 75 92 165 147 184 260 183 252 248 240 5 322 161 294 353 260 264 253 1 343 342 74 104 154 140 140 109 74 22 29 23 7 342
203 203 209 212 211 206 223 226 165 123 108 164 86 166 211 204 186 197 84 306 319 243 232 246 43 282 47 173 216 158 82 83 332 310 286 133 132 152 267 116 154 187 167 117 54 90 140 204 233 231 127 123 73 175 193 205 199 91 195 225 274 260 242 279 288 343 281 129 260 326 259 266 272 76 18 28 96 48 330 164 140 137 114 64 34 23 12 21
201 204 206 204 205 208 225 188 162 143 139 65 224 105 216 229 207 75 95 128 260 261 200 203 223 237 263 286 275 156 183 210 224 217 207 138 74 215 141 121 163 132 121 181 167 142 238 266 248 149 140 134 71 102 139 122 92 180 126 165 236 210 32 296 302 6 58 161 273 176 225 275 277 77 63 333 110 96 47 72 74 86 131 110 62 10 27 10
200 200 204 204 200 219 212 184 156 138 185 178 160 206 233 127 121 110 71 237 279 302 209 223 189 191 215 175 209 153 186 255 134 232 220 139 156 181 124 171 131 136 200 193 180 179 209 216 317 142 144 163 198 146 135 144 225 259 202 219 245 198 229 188 255 301 289 327 53 147 305 293 247 235 237 42 76 80 53 66 64 51 54 114 77 47 31 32
197 197 198 204 207 207 188 144 192 187 113 105 249 239 215 197 162 193 43 322 345 283 247 316 158 252 200 52 104 161 252 331 219 220 182 149 144 92 224 178 117 217 198 188 168 243 273 251 104 85 91 150 177 197 202 141 219 297 230 207 222 219 229 257 330 349 6 332 333 163 322 290 307 290 213 161 176 80 15 89 102 41 58 67 71 49 17 5
194 192 194 200 207 189 156 169 216 139 141 212 218 206 182 150 150 108 102 73 274 258 7 241 146 248 116 116 60 155 75 248 279 230 125 215 145 147 80 181 145 226 171 132 186 203 215 331 172 194 152 162 179 207 225 162 192 53 270 200 218 216 191 143 177 86 310 264 327 36 202 274 326 311 214 172 143 89 7 71 248 136 156 85 85 57 17 359
191 189 191 198 203 164 157 220 104 134 137 268 214 150 202 165 205 126 61 329 296 194 167 265 93 232 65 227 146 120 189 250 342 38 52 336 169 350 142 200 48 21 155 157 39 260 132 307 97 91 145 166 190 246 232 160 132 228 258 143 157 147 181 205 161 179 234 251 299 29 139 258 302 283 31 97 104 336 283 244 244 248 217 205 184 250 281 322
190 186 193 198 204 172 249 126 132 171 204 223 127 154 145 195 102 44 74 310 270 74 122 233 210 342 79 285 58 146 207 106 91 229 78 287 97 358 132 199 178 178 185 110 208 267 146 178 162 164 160 164 213 201 178 163 149 216 201 125 135 164 173 136 143 171 194 40 284 320 294 323 254 258 13 81 285 267 244 219 227 224 228 214 217 227 233 229
193 188 192 204 196 193 147 161 154 204 216 149 145 149 130 92 86 103 125 228 211 92 5 85 268 40 30 33 61 71 82 354 138 318 312 47 24 149 194 225 159 131 20 181 217 276 298 195 214 167 151 215 206 237 165 164 202 217 133 96 90 85 80 117 103 123 339 78 264 261 190 236 270 282 354 339 295 261 225 191 214 214 205 207 210 228 222 240
194 191 193 196 187 196 203 112 191 204 120 153 147 148 98 67 46 104 142 246 118 224 146 188 137 205 119 140 228 30 143 346 81 346 31 149 329 36 25 143 118 109 200 6 317 204 230 313 154 121 192 203 137 60 164 154 142 132 102 69 22 39 33 34 66 94 64 255 248 222 212 175 288 231 206 167 214 202 107 198 234 221 221 226 228 214 208 198
197 191 196 188 197 185 135 197 176 134 144 147 145 104 74 31 124 120 230 214 42 138 49 173 174 69 142 156 182 283 93 17 46 115 103 14 14 46 127 51 57 53 50 356 293 326 350 38 186 251 89 95 100 79 25 105 131 127 111 123 68 342 13 36 345 37 168 266 259 297 212 157 199 288 272 233 257 208 165 183 192 198 202 206 204 211 207 192
198 195 197 197 183 145 190 193 154 149 152 154 125 130 132 119 344 203 225 35 254 203 163 188 204 156 175 39 77 159 154 71 220 139 150 179 158 159 207 161 160 103 318 211 252 17 274 237 236 317 214 136 109 84 22 36 69 88 93 75 115 247 36 298 21 256 212 217 221 340 288 298 241 219 226 231 217 222 242 220 194 188 194 200 208 205 196 188
195 199 201 205 185 203 205 127 137 149 140 154 103 100 119 160 225 220 237 174 252 137 244 93 173 148 153 109 197 161 71 157 206 164 111 2 140 243 288 168 188 137 197 245 193 24 272 293 220 238 71 223 144 143 174 91 198 120 153 144 103 133 164 258 269 245 299 287 276 313 71 252 244 275 223 227 220 209 250 253 243 197 190 193 195 194 185 192
198 192 201 201 202 206 155 141 141 140 144 146 127 106 61 183 236 118 201 213 207 10 85 107 81 61 147 171 220 153 152 237 148 187 137 154 136 203 249 248 148 191 84 117 169 189 229 326 253 148 235 172 180 197 180 159 161 205 118 152 179 146 160 223 181 211 226 207 278 265 78 232 118 218 198 228 260 289 254 244 234 217 210 194 174 162 181 199
195 196 203 209 212 201 155 161 151 146 135 144 134 165 184 223 224 164 203 180 260 68 46 104 123 119 224 321 286 232 141 193 170 120 176 143 207 191 187 205 223 120 158 126 249 84 202 228 264 269 270 155 183 240 112 96 56 205 167 75 99 227 140 193 205 160 245 331 334 190 209 191 190 71 259 296 304 314 341 283 183 192 170 155 169 192 202 211
184 198 191 214 201 183 161 169 157 147 154 160 162 190 208 207 218 150 222 142 151 144 136 51 68 146 238 237 322 204 277 139 210 119 231 202 214 198 211 192 184 192 158 176 181 172 59 283 293 336 51 124 215 133 199 145 200 207 112 193 211 158 114 69 29 72 96 46 255 136 295 283 313 343 325 324 327 311 333 26 166 167 167 172 196 204 210 211
200 156 208 198 206 162 163 166 160 153 173 182 185 211 215 234 186 163 233 178 183 132 146 151 221 158 189 212 196 196 223 68 204 146 223 142 281 194 214 251 179 183 211 138 266 193 140 232 296 102 222 320 260 200 92 34 146 98 186 234 177 139 115 131 222 338 79 197 268 95 233 280 69 278 55 354 333 267 252 211 187 173 172 192 205 205 208 208
190 206 229 215 198 162 161 168 158 165 188 207 208 218 93 215 196 158 159 103 94 162 145 196 262 161 222 167 222 169 217 178 197 148 204 183 244 177 166 180 197 182 201 211 162 257 120 282 291 308 183 298 350 112 43 348 40 148 195 205 114 207 191 290 88 253 239 253 267 277 242 252 203 244 95 252 222 235 212 195 173 195 195 206 208 212 214 215
186 194 226 216 164 168 164 164 174 163 189 208 215 229 214 217 147 176 185 144 134 159 192 215 169 224 139 195 166 159 161 188 165 191 139 228 195 194 182 162 208 213 201 144 171 160 58 158 287 338 149 219 32 114 191 204 345 43 65 67 355 107 168 130 200 188 136 261 281 268 305 270 147 211 179 210 210 211 161 181 210 205 202 200 204 204 203 205
187 187 237 158 163 158 158 169 169 197 195 208 205 220 77 169 198 211 146 158 191 170 230 182 208 152 181 202 161 169 206 170 163 204 190 207 187 255 190 242 164 173 167 186 170 141 160 133 228 286 273 102 182 187 209 166 166 104 122 229 106 344 232 106 353 146 179 194 206 268 276 268 254 196 177 209 246 201 177 196 205 205 206 209 208 202 202 204
190 221 259 156 157 147 152 172 195 195 205 223 237 235 198 183 155 199 142 111 115 351 185 199 170 191 172 120 253 156 162 174 176 182 192 217 182 187 223 172 151 140 130 86 175 193 126 164 190 159 141 220 234 248 211 183 196 176 171 195 181 135 160 177 257 72 144 163 231 209 254 278 263 132 225 243 246 193 214 208 202 203 207 209 210 208 205 208
175 210 215 162 148 148 161 194 206 197 215 207 216 208 217 108 158 198 135 118 93 175 60 108 309 130 152 191 148 179 157 178 194 182 227 184 207 160 259 146 157 151 141 174 185 217 155 142 108 188 200 202 221 8 241 202 129 189 165 238 175 194 146 181 234 228 32 249 83 184 23 261 177 189 228 241 249 252 218 188 219 212 213 215 218 222 228 216
193 204 359 178 164 156 172 210 204 201 214 223 122 224 159 187 190 181 190 187 194 143 150 215 204 155 258 166 166 162 166 193 167 205 169 177 234 202 226 161 145 148 87 73 65 238 115 122 140 299 312 315 312 317 46 64 103 317 272 102 129 191 197 212 225 187 192 162 207 14 238 258 18 179 237 243 250 250 229 193 208 212 198 203 204 210 213 211
181 131 174 299 195 171 179 190 194 203 206 67 195 211 143 200 169 169 204 189 178 161 182 184 328 247 174 138 130 173 189 184 213 173 270 194 201 44 173 162 164 177 154 207 150 194 143 238 137 144 33 345 343 340 13 11 52 198 210 214 169 121 66 118 95 71 225 209 161 144 254 257 266 154 315 33 33 101 197 217 192 207 210 210 212 212 211 207
107 46 27 196 222 220 200 195 203 196 200 204 189 199 191 212 228 199 183 197 163 167 127 222 193 150 147 162 136 84 202 195 80 249 112 192 210 2 355 148 232 172 53 177 111 160 151 173 145 188 211 212 212 187 208 223 216 225 210 237 231 176 158 118 235 192 228 189 151 222 251 264 290 329 51 13 24 355 306 185 150 191 204 209 208 211 211 204
163 158 185 183 205 228 284 6 214 193 197 200 202 207 193 208 219 244 182 202 178 174 180 126 23 149 139 140 147 186 212 238 160 196 164 213 234 340 298 344 15 188 188 117 143 130 166 114 185 207 208 229 230 195 258 97 75 182 224 183 209 198 202 180 106 169 212 204 209 234 251 331 279 240 251 290 52 239 251 205 204 227 232 228 223 219 214 214
44 133 153 185 96 242 258 183 237 190 204 177 210 156 206 206 166 256 191 198 198 172 145 151 157 162 237 173 186 198 196 209 111 130 202 170 251 239 348 99 48 26 125 93 351 77 86 199 218 221 232 242 139 180 190 165 176 209 192 228 209 181 178 184 190 225 141 158 252 244 174 237 249 234 224 275 262 224 243 225 221 228 221 209 218 228 236 238
136 280 128 239 147 193 204 226 191 205 71 174 211 149 201 198 189 198 168 266 134 168 159 305 193 197 173 185 158 179 181 210 174 217 124 230 102 294 64 4 116 327 20 69 346 137 153 217 220 182 246 236 152 175 164 186 215 198 203 212 214 205 179 196 219 223 168 215 252 254 180 206 248 230 189 209 215 191 206 215 214 210 188 161 184 215 221 227
76 30 186 343 173 310 214 65 163 176 176 165 157 141 172 198 208 202 161 150 154 199 194 202 207 200 185 171 166 193 179 180 225 208 164 196 175 135 159 47 243 39 94 66 68 177 128 238 204 171 231 249 228 167 180 189 214 232 234 229 228 199 205 210 223 221 208 234 245 274 184 240 237 206 198 220 175 204 229 108 118 141 189 196 204 225 230 234
211 128 235 3 51 34 28 117 158 177 205 172 155 217 204 208 211 174 185 169 181 207 195 215 209 203 195 183 180 196 204 208 199 195 201 154 207 187 195 183 144 9 46 168 143 289 151 280 108 137 227 248 244 101 151 203 201 239 247 242 196 195 232 224 207 145 201 276 267 270 261 266 252 170 211 251 211 246 304 287 236 220 220 212 214 230 237 237
63 358 278 135 149 164 49 56 151 189 206 178 197 212 189 221 231 189 204 241 191 177 184 207 205 174 184 192 205 220 221 215 217 198 180 171 198 201 147 240 132 137 140 95 109 301 154 246 60 108 226 243 224 165 177 156 183 237 255 241 165 201 230 193 173 203 187 224 224 224 250 253 254 123 193 239 229 226 235 245 264 247 231 225 230 242 241 239
67 256 209 83 101 173 144 304 121 144 218 210 198 188 177 214 207 158 265 327 49 84 182 199 186 127 186 189 212 222 183 96 132 106 117 53 76 115 132 161 151 148 164 190 134 148 181 142 164 179 221 238 255 143 163 137 275 275 246 230 198 215 212 98 243 211 215 212 219 234 244 250 231 165 199 248 228 230 244 239 240 254 242 214 230 238 243 242